DW4238 Weather Reports


Display with metric or nautical units.
time (UTC)temp
F
wind
direction
speed
MPH
gust
MPH
rain 1hr
in
rain 24hr
in
rain mn
in
humidity
%
barometer
mb
20260504224541 80 183 13.0 17.0 0.00 0.00 0.00 66 1009.2
20260504224051 80 166 9.0 16.0 0.00 0.00 0.00 66 1009.2
20260504223053 80 132 10.0 17.0 0.00 0.00 0.00 66 1009.2
20260504222557 80 162 13.0 17.0 0.00 0.00 0.00 64 1009.3
20260504222105 81 190 12.0 17.0 0.00 0.00 0.00 62 1009.1
20260504221532 81 191 11.0 18.0 0.00 0.00 0.00 63 1009.2
20260504221034 81 150 12.0 18.0 0.00 0.00 0.00 63 1009.2
20260504220059 81 151 9.0 16.0 0.00 0.00 0.00 64 1009.2
20260504215609 81 196 9.0 16.0 0.00 0.00 0.00 64 1009.3
20260504215120 81 183 11.0 19.0 0.00 0.00 0.00 64 1009.5
20260504214540 81 142 13.0 19.0 0.00 0.00 0.00 63 1009.5
20260504214052 80 194 11.0 18.0 0.00 0.00 0.00 64 1009.6
20260504213050 80 185 11.0 16.0 0.00 0.00 0.00 65 1009.8
20260504212535 80 177 11.0 15.0 0.00 0.00 0.00 63 1009.9
20260504211559 80 169 10.0 16.0 0.00 0.00 0.00 64 1010.1
20260504211109 80 172 8.0 15.0 0.00 0.00 0.00 64 1010.3
20260504210615 80 185 10.0 15.0 0.00 0.00 0.00 64 1010.3
20260504210040 80 215 10.0 13.0 0.00 0.00 0.00 65 1010.5
20260504205544 80 195 9.0 12.0 0.00 0.00 0.00 64 1010.5
20260504204553 80 225 11.0 14.0 0.00 0.00 0.00 63 1010.6
20260504204057 80 199 10.0 13.0 0.00 0.00 0.00 64 1010.8
20260504203607 80 201 8.0 13.0 0.00 0.00 0.00 64 1010.8
20260504203038 80 186 11.0 15.0 0.00 0.00 0.00 65 1010.9
20260504202541 80 185 11.0 15.0 0.00 0.00 0.00 64 1011.0
20260504201601 80 225 10.0 16.0 0.00 0.00 0.00 63 1011.1
20260504201050 80 204 12.0 19.0 0.00 0.00 0.00 64 1011.1
20260504200051 80 185 11.0 17.0 0.00 0.00 0.00 64 1011.3
20260504195554 80 180 11.0 14.0 0.00 0.00 0.00 63 1011.4
20260504195104 80 213 9.0 13.0 0.00 0.00 0.00 64 1011.5
20260504194526 79 206 8.0 16.0 0.00 0.00 0.00 65 1011.7
20260504194137 79 196 10.0 16.0 0.00 0.00 0.00 64 1011.9
20260504193622 79 167 11.0 16.0 0.00 0.00 0.00 65 1011.9
20260504193053 79 189 12.0 16.0 0.00 0.00 0.00 65 1012.0
20260504192542 79 172 10.0 16.0 0.00 0.00 0.00 65 1011.9
20260504191602 79 211 10.0 17.0 0.00 0.00 0.00 66 1012.1
20260504191044 79 171 12.0 17.0 0.00 0.00 0.00 65 1012.1
20260504190045 78 184 11.0 17.0 0.00 0.00 0.00 65 1012.3
20260504185537 78 162 9.0 17.0 0.00 0.00 0.00 65 1012.3
20260504184555 78 159 10.0 14.0 0.00 0.00 0.00 67 1012.6
20260504184059 77 171 9.0 17.0 0.00 0.00 0.00 66 1012.6
20260504183109 77 168 8.0 17.0 0.00 0.00 0.00 65 1012.8
20260504182550 77 158 8.0 15.0 0.00 0.00 0.00 67 1012.8
20260504181611 77 195 10.0 18.0 0.00 0.00 0.00 66 1012.9
20260504181100 77 221 11.0 18.0 0.00 0.00 0.00 65 1013.0
20260504180600 77 180 8.0 15.0 0.00 0.00 0.00 67 1013.1
20260504180030 77 178 10.0 17.0 0.00 0.00 0.00 64 1013.1
20260504175541 77 207 10.0 17.0 0.00 0.00 0.00 64 1013.0
20260504175143 78 198 13.0 17.0 0.00 0.00 0.00 64 1013.1
20260504174548 78 183 9.0 18.0 0.00 0.00 0.00 64 1013.2
20260504174100 77 196 11.0 18.0 0.00 0.00 0.00 62 1013.3
20260504173601 77 207 9.0 18.0 0.00 0.00 0.00 62 1013.4
20260504173032 77 163 13.0 22.0 0.00 0.00 0.00 64 1013.3
20260504172632 77 201 12.0 22.0 0.00 0.00 0.00 64 1013.4
20260504172119 77 186 13.0 20.0 0.00 0.00 0.00 63 1013.3
20260504171528 76 171 14.0 20.0 0.00 0.00 0.00 64 1013.5
20260504171030 76 188 12.0 19.0 0.00 0.00 0.00 64 1013.6
20260504170641 76 150 12.0 19.0 0.00 0.00 0.00 65 1013.7
20260504151053 72 229 12.0 17.0 0.00 0.00 0.00 71 1014.6
20260504141028 69 187 10.0 15.0 0.00 0.00 0.00 74 1014.7
20260504130623 63 170 7.0 11.0 0.00 0.00 0.00 77 1014.9
20260504110103 59 173 6.0 8.0 0.00 0.00 0.00 81 1014.1
20260504100105 60 167 9.0 12.0 0.00 0.00 0.00 80 1014.3
20260504081619 62 186 8.0 10.0 0.00 0.00 0.00 77 1014.8
20260504081122 62 159 8.0 10.0 0.00 0.00 0.00 77 1014.8
20260504080605 62 183 9.0 10.0 0.00 0.00 0.00 76 1014.9
20260504050545 64 171 8.0 10.0 0.00 0.00 0.00 73 1016.9
20260504045542 65 180 8.0 12.0 0.00 0.00 0.00 72 1017.0
20260504044548 65 180 8.0 10.0 0.00 0.00 0.00 72 1017.0
20260504044053 65 171 8.0 11.0 0.00 0.00 0.00 72 1017.0
20260504043644 65 186 8.0 11.0 0.00 0.00 0.00 72 1017.1
20260504043051 65 184 7.0 11.0 0.00 0.00 0.00 72 1017.2
20260504042534 65 175 7.0 12.0 0.00 0.00 0.00 71 1017.3
20260504041603 66 177 9.0 11.0 0.00 0.00 0.00 71 1017.3
20260504041045 66 181 8.0 12.0 0.00 0.00 0.00 71 1017.3
20260504040538 66 178 8.0 12.0 0.00 0.00 0.00 71 1017.4
20260504040139 66 178 7.0 11.0 0.00 0.00 0.00 71 1017.4
20260504035529 66 171 8.0 11.0 0.00 0.00 0.00 70 1017.3
20260504035033 66 175 8.0 11.0 0.00 0.00 0.00 71 1017.3
20260504034646 66 170 9.0 11.0 0.00 0.00 0.00 71 1017.3
20260504034035 67 178 6.0 11.0 0.00 0.00 0.00 70 1017.4
20260504033055 67 184 8.0 11.0 0.00 0.00 0.00 69 1017.3
20260504032538 67 171 7.0 9.0 0.00 0.00 0.00 69 1017.2
20260504031608 67 182 7.0 11.0 0.00 0.00 0.00 68 1017.0
20260504031113 68 180 8.0 10.0 0.00 0.00 0.00 67 1017.1
20260504030623 68 185 8.0 10.0 0.00 0.00 0.00 67 1017.1
20260504030055 68 186 8.0 11.0 0.00 0.00 0.00 66 1017.1
20260504025559 68 171 8.0 11.0 0.00 0.00 0.00 65 1017.0
20260504024617 68 177 10.0 11.0 0.00 0.00 0.00 63 1016.9
20260504024029 67 153 5.0 7.0 0.00 0.00 0.00 62 1016.8
20260504023050 68 202 3.0 5.0 0.00 0.00 0.00 60 1016.8
20260504022603 68 203 3.0 5.0 0.00 0.00 0.00 59 1016.6
20260504021606 69 206 3.0 4.0 0.00 0.00 0.00 59 1016.5
20260504021116 69 206 3.0 4.0 0.00 0.00 0.00 59 1016.6
20260504020137 69 207 3.0 4.0 0.00 0.00 0.00 57 1016.5
20260504015621 70 207 3.0 4.0 0.00 0.00 0.00 57 1016.6
20260504015132 70 208 3.0 4.0 0.00 0.00 0.00 57 1016.6
20260504014534 70 208 3.0 4.0 0.00 0.00 0.00 57 1016.5
20260504014039 70 208 3.0 4.0 0.00 0.00 0.00 56 1016.5
20260504013040 71 208 2.0 3.0 0.00 0.00 0.00 56 1016.4
20260504012554 71 208 2.0 4.0 0.00 0.00 0.00 55 1016.3
20260504011028 72 209 3.0 5.0 0.00 0.00 0.00 53 1016.3
20260504010641 72 209 3.0 5.0 0.00 0.00 0.00 54 1016.3
20260504010038 72 211 3.0 4.0 0.00 0.00 0.00 53 1016.3
20260504005548 72 211 3.0 5.0 0.00 0.00 0.00 53 1016.3
20260504004608 73 212 4.0 5.0 0.00 0.00 0.00 52 1016.4
20260504004059 73 217 3.0 6.0 0.00 0.00 0.00 52 1016.4
20260504003102 73 178 4.0 6.0 0.00 0.00 0.00 50 1016.6
20260504002614 74 172 5.0 6.0 0.00 0.00 0.00 49 1016.6
20260504001615 74 155 5.0 8.0 0.00 0.00 0.00 49 1016.7
20260504001119 74 191 5.0 7.0 0.00 0.00 0.00 49 1016.9
20260504000529 75 186 3.0 7.0 0.00 0.00 0.00 49 1016.9
20260504000120 75 194 4.0 8.0 0.00 0.00 0.00 48 1016.8
20260503235625 76 194 5.0 10.0 0.00 0.00 0.00 45 1016.8
20260503235114 76 138 6.0 10.0 0.00 0.00 0.00 46 1016.8
20260503234532 77 165 8.0 11.0 0.00 0.00 0.00 45 1016.8
20260503234044 77 184 6.0 13.0 0.00 0.00 0.00 46 1016.7
20260503233110 77 177 7.0 12.0 0.00 0.00 0.00 47 1016.8
20260503232601 77 167 8.0 11.0 0.00 0.00 0.00 47 1016.9
20260503231619 77 187 8.0 12.0 0.00 0.00 0.00 45 1017.0
20260503231031 77 188 6.0 10.0 0.00 0.00 0.00 46 1016.9
20260503230051 77 181 9.0 13.0 0.00 0.00 0.00 44 1017.0
20260503225534 78 175 8.0 12.0 0.00 0.00 0.00 46 1017.0
20260503225144 78 198 7.0 14.0 0.00 0.00 0.00 46 1017.0